Address 0x3326e4adc42637cf5e7cf68d98f47154553a91b0

Txn Hash Method
Block
From
To
Value [Txn Fee]
0x66216c8f82f685722674aa41fbddbbaa40da18e0474547ac61299c7189cb3f94Purchase Name181866342023-03-12 6:08:4518 days 1 hr ago0x3326e4adc42637cf5e7cf68d98f47154553a91b0OUT 0x6aa37df2392007209c54a2162bef21623705dc220 CELO0.0089181
0x80df0e53d0a77a104303ba0aa0eaafa70817f3c9ede7b82111602038399269bbPurchase Identit...181722352023-03-11 10:08:5018 days 21 hrs ago0x3326e4adc42637cf5e7cf68d98f47154553a91b0OUT 0x6aa37df2392007209c54a2162bef21623705dc220 CELO0.011964625
0x167ad0ed431de50e97923e85e40c1b99a84cbcf5ce5dd519008190cdeb3a001fTransfer123891342022-04-09 17:13:15354 days 14 hrs ago0x3326e4adc42637cf5e7cf68d98f47154553a91b0OUT0xf8eee815bad4197d2bffafe161ca28709c5f6b822.8 CELO0.0000105
0x5271ea2e37592129223668e679569c7dd002e040ed0f00c2a10d1d5dccbe640c0x10f13a8c115050412022-02-17 13:17:13405 days 18 hrs ago0x3326e4adc42637cf5e7cf68d98f47154553a91b0OUT 0x4030b393bbd64142a8a69e904a0bf15f87993d9a0 CELO0.0000251705
0xf2b734f6463a5806a18cd308843bce11f3c40ed954daaf72ae8c2521ee43d7300xb2d3ed39115050212022-02-17 13:15:33405 days 18 hrs ago0x3326e4adc42637cf5e7cf68d98f47154553a91b0OUT 0x33d2bb7ac3d9c726b940aeb0d31c44864716514b0 CELO0.0001249435
0xa1bc42c4f7531135a1e52805fe71ee8b7657e07b5b55a9ddd8aa7021831b8610Approve115050182022-02-17 13:15:18405 days 18 hrs ago0x3326e4adc42637cf5e7cf68d98f47154553a91b0OUT 0x0956525490c753fe8134bc64873374167d0f39230 CELO0.000022243
0x584420996af3660e6d7d96fd92a51234ec56a7f7553168e9ecd55ff589917ee30x10f13a8c115048942022-02-17 13:04:58405 days 18 hrs ago0x3326e4adc42637cf5e7cf68d98f47154553a91b0OUTNull: 0x000…0000 CELO0.000011322
0x708aa032e6191fabfd9329825c1d9659d6dd7fdea95a781ee37d9068f1337c470x28ed4f6c115048932022-02-17 13:04:53405 days 18 hrs ago0x3326e4adc42637cf5e7cf68d98f47154553a91b0OUT 0xdf204de57532242700d988422996e9ced7aba4cb0 CELO0.000016498
0x0dfb086cdd26004cb41e916add9e485a5893076c75c8b49af5a9164ebcfc4d860xd5fa2b00115048922022-02-17 13:04:48405 days 18 hrs ago0x3326e4adc42637cf5e7cf68d98f47154553a91b0OUTNull: 0x000…0000 CELO0.000010966
0x7d7b65c81b264f2fa72126644649503e00707454fc0cb324025709e23e088c7f0x10f13a8c115047442022-02-17 12:52:28405 days 18 hrs ago0x3326e4adc42637cf5e7cf68d98f47154553a91b0OUTNull: 0x000…0000 CELO0.000011322
0x8930b07353a76212277103e08b3a493547d6d1bc13dca3948efb770c496f41d40x10f13a8c115047432022-02-17 12:52:23405 days 18 hrs ago0x3326e4adc42637cf5e7cf68d98f47154553a91b0OUTNull: 0x000…0000 CELO0.000011346
0xc027e53b9f2abe8e70089bd63b9f9efba11c330ff217f0c34b222af33849eee30xd5fa2b00115047412022-02-17 12:52:13405 days 18 hrs ago0x3326e4adc42637cf5e7cf68d98f47154553a91b0OUTNull: 0x000…0000 CELO0.000010966
0x8506df4c487c3563162dd774f93c0fe81fab9cb9974a62a0774ad999c6938a750x28ed4f6c114042512022-02-11 17:17:50411 days 14 hrs ago0x3326e4adc42637cf5e7cf68d98f47154553a91b0OUT 0xdf204de57532242700d988422996e9ced7aba4cb0 CELO0.000016498
0x518eb3ee866d262095b0e4ce568f6c0305eccf41ed0e0142df63f8a5f57155380x10f13a8c114042452022-02-11 17:17:20411 days 14 hrs ago0x3326e4adc42637cf5e7cf68d98f47154553a91b0OUT 0x4030b393bbd64142a8a69e904a0bf15f87993d9a0 CELO0.0000251705
0x03bde430edafc82c2da3b0454590e7be8105c887f5128bffcb53fbfc260ec0d00x10f13a8c114042382022-02-11 17:16:45411 days 14 hrs ago0x3326e4adc42637cf5e7cf68d98f47154553a91b0OUT 0x4030b393bbd64142a8a69e904a0bf15f87993d9a0 CELO0.0000251705
0xcf4d1290b973c1c9230c1a88dda33356752776998bcb61c1d4946f578959d5a80x10f13a8c114042372022-02-11 17:16:40411 days 14 hrs ago0x3326e4adc42637cf5e7cf68d98f47154553a91b0OUT 0x4030b393bbd64142a8a69e904a0bf15f87993d9a0 CELO0.0000251945
0x34579b8db7e6e13ab9d98b357ad1959d610a33a7b1635ec0d663b0ae3477b3d60xb2d3ed39113971212022-02-11 7:23:40412 days 18 mins ago0x3326e4adc42637cf5e7cf68d98f47154553a91b0OUT 0xb6f26c1b34a994859960f47c4d2350aa151e43c40 CELO0.0001252555
0x621356b2cf853b3733c0cbd9026e70e02b6d2de6bb547e361efb9e98af9ea2d0Approve113971202022-02-11 7:23:35412 days 18 mins ago0x3326e4adc42637cf5e7cf68d98f47154553a91b0OUT 0x0956525490c753fe8134bc64873374167d0f39230 CELO0.000022243
0x1f0eb6ee425d0e6692d337c02dca945dda08ec7893979df8b0029f8affac6b700x10f13a8c113522002022-02-08 17:00:06414 days 14 hrs ago0x3326e4adc42637cf5e7cf68d98f47154553a91b0OUTNull: 0x000…0000 CELO0.000011322
0xa0ad6ef44790406e134222ca9aec6744b01825f92f33b01756f724ce0a54fe470xd5fa2b00113521992022-02-08 17:00:01414 days 14 hrs ago0x3326e4adc42637cf5e7cf68d98f47154553a91b0OUTNull: 0x000…0000 CELO0.000010966
0x403e0b4fa7a3e17b61032b87a555345ae6eb5a3b246be054d8d4a94733f0ac5a0x10f13a8c113521482022-02-08 16:55:46414 days 14 hrs ago0x3326e4adc42637cf5e7cf68d98f47154553a91b0OUTNull: 0x000…0000 CELO0.000011322
0x79587958bf329558cf36c08a4cb29e75d43fcd5c2537ae52c4cea2b0367217370xd5fa2b00113521472022-02-08 16:55:41414 days 14 hrs ago0x3326e4adc42637cf5e7cf68d98f47154553a91b0OUTNull: 0x000…0000 CELO0.000010966
0x84979471d6df29f36bc066f4c42b9287d2653229c8db7ee11708a03c1f71e4680x28ed4f6c113521212022-02-08 16:53:31414 days 14 hrs ago0x3326e4adc42637cf5e7cf68d98f47154553a91b0OUT 0xdf204de57532242700d988422996e9ced7aba4cb0 CELO0.000016498
0x69f3076be32d60dde64567e32b7aafc63f744d35be6996d59290ceecd98230100xb2d3ed39113519542022-02-08 16:39:36414 days 15 hrs ago0x3326e4adc42637cf5e7cf68d98f47154553a91b0OUT 0x046d19c5e5e8938d54fb02dcc396acf7f275490a0 CELO0.000120571
0xba6259fb809ca87a3c26c8f38734bdcee2f6ee08fff05490ed85c056047e4d20Approve113519502022-02-08 16:39:16414 days 15 hrs ago0x3326e4adc42637cf5e7cf68d98f47154553a91b0OUT Celo: cUSD Token0 CELO0.0000238925
[ Download CSV Export 
Parent Txn Hash Block From To Value
Loading

Contract Name:
0

Compiler Version
0

Optimization Enabled:
0

Other Settings:
-NA-
Block Transaction Gas Used Reward
Age Block Fee Address BC Fee Address Voting Power Jailed Incoming
Block Uncle Number Difficulty Gas Used Reward
Loading
Make sure to use the "Vote Down" button for any spammy posts, and the "Vote Up" for interesting conversations.